Time,TemperatureF,DewpointF,PressureIn,WindDirection,WindDirectionDegrees,WindSpeedMPH,WindSpeedGustMPH,Humidity,HourlyPrecipIn,Conditions,Clouds,dailyrainin,SolarRadiationWatts/m^2,SoftwareType,DateUTC
2013-03-10 00:00:00,34.0,31.0,-100.00,South,180,3.0,-999.0,86,-99.99,,,-99.99,0.000000,,2013-03-10 05:00:00,
2013-03-10 00:42:00,34.0,31.0,-100.00,South,180,3.0,-999.0,86,-99.99,,,-99.99,0.000000,,2013-03-10 05:42:00,
2013-03-10 00:52:00,34.0,31.0,-100.00,South,180,3.0,-999.0,86,-99.99,,,-99.99,0.000000,,2013-03-10 05:52:00,
2013-03-10 01:00:00,34.0,31.0,-100.00,East,90,4.0,-999.0,91,-99.99,,,-99.99,0.000000,,2013-03-10 06:00:00,
2013-03-10 01:42:00,34.0,31.0,-100.00,East,90,4.0,-999.0,91,-99.99,,,-99.99,0.000000,,2013-03-10 06:42:00,
2013-03-10 01:52:00,34.0,31.0,-100.00,East,90,4.0,-999.0,91,-99.99,,,-99.99,0.000000,,2013-03-10 06:52:00,
2013-03-10 14:00:00,43.0,37.0,-100.00,SSW,202,3.0,-999.0,78,-99.99,,,-99.99,184.440002,,2013-03-10 18:00:00,
2013-03-10 14:42:00,43.0,37.0,-100.00,SSW,202,3.0,-999.0,78,-99.99,,,-99.99,184.440002,,2013-03-10 18:42:00,
2013-03-10 14:52:00,43.0,37.0,-100.00,SSW,202,3.0,-999.0,78,-99.99,,,-99.99,184.440002,,2013-03-10 18:52:00,
2013-03-10 15:00:00,43.0,37.0,-100.00,SSE,157,0.0,-999.0,79,-99.99,,,-99.99,140.360001,,2013-03-10 19:00:00,
2013-03-10 15:42:00,43.0,37.0,-100.00,SSE,157,0.0,-999.0,79,-99.99,,,-99.99,140.360001,,2013-03-10 19:42:00,
2013-03-10 15:53:00,43.0,37.0,-100.00,SSE,157,0.0,-999.0,79,-99.99,,,-99.99,140.360001,,2013-03-10 19:53:00,
2013-03-10 16:00:00,43.0,37.0,-100.00,SSW,202,0.0,-999.0,81,-99.99,,,-99.99,110.199997,,2013-03-10 20:00:00,
2013-03-10 16:43:00,43.0,37.0,-100.00,SSW,202,0.0,-999.0,81,-99.99,,,-99.99,110.199997,,2013-03-10 20:43:00,
2013-03-10 16:53:00,43.0,37.0,-100.00,SSW,202,0.0,-999.0,81,-99.99,,,-99.99,110.199997,,2013-03-10 20:53:00,
2013-03-10 17:00:00,42.0,37.0,-100.00,SSW,202,2.0,-999.0,83,-99.99,,,-99.99,118.320000,,2013-03-10 21:00:00,
2013-03-10 17:43:00,42.0,37.0,-100.00,SSW,202,2.0,-999.0,83,-99.99,,,-99.99,118.320000,,2013-03-10 21:43:00,
2013-03-10 17:53:00,42.0,37.0,-100.00,SSW,202,2.0,-999.0,83,-99.99,,,-99.99,118.320000,,2013-03-10 21:53:00,
2013-03-10 18:00:00,41.0,36.0,-100.00,SSW,202,2.0,-999.0,84,-99.99,,,-99.99,51.040001,,2013-03-10 22:00:00,
2013-03-10 18:43:00,41.0,36.0,-100.00,SSW,202,2.0,-999.0,84,-99.99,,,-99.99,51.040001,,2013-03-10 22:43:00,
2013-03-10 18:53:00,41.0,36.0,-100.00,SSW,202,2.0,-999.0,84,-99.99,,,-99.99,51.040001,,2013-03-10 22:53:00,
2013-03-10 19:00:00,38.0,35.0,-100.00,West,270,1.0,-999.0,88,-99.99,,,-99.99,12.760000,,2013-03-10 23:00:00,
2013-03-10 19:33:00,38.0,35.0,-100.00,West,270,1.0,-999.0,88,-99.99,,,-99.99,12.760000,,2013-03-10 23:33:00,
2013-03-10 19:43:00,38.0,35.0,-100.00,West,270,1.0,-999.0,88,-99.99,,,-99.99,12.760000,,2013-03-10 23:43:00,
2013-03-10 19:53:00,38.0,35.0,-100.00,West,270,1.0,-999.0,88,-99.99,,,-99.99,12.760000,,2013-03-10 23:53:00,
2013-03-10 20:00:00,39.0,35.0,-100.00,ESE,112,3.0,-999.0,86,-99.99,,,-99.99,2.320000,,2013-03-11 00:00:00,
2013-03-10 20:43:00,39.0,35.0,-100.00,ESE,112,3.0,-999.0,86,-99.99,,,-99.99,2.320000,,2013-03-11 00:43:00,
2013-03-10 20:53:00,39.0,35.0,-100.00,ESE,112,3.0,-999.0,86,-99.99,,,-99.99,2.320000,,2013-03-11 00:53:00,
2013-03-10 21:00:00,39.0,35.0,-100.00,ESE,112,4.0,-999.0,86,-99.99,,,-99.99,0.000000,,2013-03-11 01:00:00,
2013-03-10 21:43:00,39.0,35.0,-100.00,ESE,112,4.0,-999.0,86,-99.99,,,-99.99,0.000000,,2013-03-11 01:43:00,
2013-03-10 21:53:00,39.0,35.0,-100.00,ESE,112,4.0,-999.0,86,-99.99,,,-99.99,0.000000,,2013-03-11 01:53:00,
2013-03-10 22:00:00,39.0,35.0,-100.00,ENE,67,3.0,-999.0,86,-99.99,,,-99.99,0.000000,,2013-03-11 02:00:00,
2013-03-10 22:42:00,39.0,35.0,-100.00,ENE,67,3.0,-999.0,86,-99.99,,,-99.99,0.000000,,2013-03-11 02:42:00,
2013-03-10 22:53:00,39.0,35.0,-100.00,ENE,67,3.0,-999.0,86,-99.99,,,-99.99,0.000000,,2013-03-11 02:53:00,
2013-03-10 23:00:00,39.0,36.0,-100.00,South,180,4.0,-999.0,87,-99.99,,,-99.99,0.000000,,2013-03-11 03:00:00,
2013-03-10 23:43:00,39.0,36.0,-100.00,South,180,4.0,-999.0,87,-99.99,,,-99.99,0.000000,,2013-03-11 03:43:00,
2013-03-10 23:53:00,39.0,36.0,-100.00,South,180,4.0,-999.0,87,-99.99,,,-99.99,0.000000,,2013-03-11 03:53:00,